| time (UTC) | temp F | wind direction | speed MPH | gust MPH | rain 1hr in | rain 24hr in | rain mn in | humidity % | barometer mb |
| 20260503211534 | 71 | 338 | 11.0 | 21.0 | 0.00 | 0.00 | 0.00 | 31 | 1006.5 |
| 20260503210032 | 71 | 294 | 16.0 | 21.0 | 0.00 | 0.00 | 0.00 | 29 | 1006.5 |
| 20260503204531 | 71 | 336 | 11.0 | 24.0 | 0.00 | 0.00 | 0.00 | 28 | 1006.7 |
| 20260503203036 | 71 | 312 | 11.0 | 24.0 | 0.00 | 0.00 | 0.00 | 28 | 1006.7 |
| 20260503201630 | 71 | 319 | 13.0 | 20.0 | 0.00 | 0.00 | 0.00 | 29 | 1006.8 |
| 20260503200028 | 70 | 304 | 10.0 | 22.0 | 0.00 | 0.00 | 0.00 | 31 | 1006.8 |
| 20260503194529 | 71 | 5 | 9.0 | 19.0 | 0.00 | 0.00 | 0.00 | 33 | 1006.8 |
| 20260503193025 | 70 | 304 | 13.0 | 19.0 | 0.00 | 0.00 | 0.00 | 35 | 1007.0 |
| 20260503191523 | 70 | 5 | 13.0 | 23.0 | 0.00 | 0.00 | 0.00 | 35 | 1007.0 |
| 20260503190025 | 70 | 10 | 12.0 | 20.0 | 0.00 | 0.00 | 0.00 | 32 | 1007.1 |
| 20260503184520 | 70 | 346 | 9.0 | 25.0 | 0.00 | 0.00 | 0.00 | 36 | 1007.1 |
| 20260503183021 | 69 | 290 | 14.0 | 21.0 | 0.00 | 0.00 | 0.00 | 34 | 1007.1 |
| 20260503181515 | 69 | 5 | 10.0 | 20.0 | 0.00 | 0.00 | 0.00 | 36 | 1007.1 |
| 20260503180013 | 69 | 5 | 11.0 | 21.0 | 0.00 | 0.00 | 0.00 | 37 | 1007.3 |
| 20260503174509 | 68 | 327 | 10.0 | 24.0 | 0.00 | 0.00 | 0.00 | 41 | 1007.4 |
| 20260503173008 | 68 | 337 | 11.0 | 25.0 | 0.00 | 0.00 | 0.00 | 41 | 1007.4 |
| 20260503171509 | 67 | 317 | 11.0 | 21.0 | 0.00 | 0.00 | 0.00 | 43 | 1007.3 |
| 20260503090112 | 52 | 232 | 16.0 | 23.0 | 0.00 | 0.00 | 0.00 | 55 | 1012.1 |
| 20260503081551 | 53 | 232 | 16.0 | 25.0 | 0.00 | 0.00 | 0.00 | 51 | 1012.4 |
| 20260503071604 | 54 | 248 | 14.0 | 20.0 | 0.00 | 0.00 | 0.00 | 49 | 1012.8 |
| 20260503054539 | 51 | 228 | 8.0 | 12.0 | 0.00 | 0.00 | 0.00 | 49 | 1013.6 |
| 20260503053035 | 51 | 220 | 8.0 | 10.0 | 0.00 | 0.00 | 0.00 | 49 | 1013.8 |
| 20260503051526 | 51 | 223 | 8.0 | 11.0 | 0.00 | 0.00 | 0.00 | 48 | 1013.8 |
| 20260503050022 | 51 | 218 | 7.0 | 10.0 | 0.00 | 0.00 | 0.00 | 48 | 1014.0 |
| 20260503044541 | 52 | 220 | 7.0 | 11.0 | 0.00 | 0.00 | 0.00 | 48 | 1013.9 |
| 20260503043036 | 51 | 215 | 6.0 | 11.0 | 0.00 | 0.00 | 0.00 | 49 | 1014.0 |
| 20260503041518 | 51 | 208 | 5.0 | 8.0 | 0.00 | 0.00 | 0.00 | 49 | 1014.2 |
| 20260503040015 | 51 | 202 | 5.0 | 9.0 | 0.00 | 0.00 | 0.00 | 48 | 1014.4 |
| 20260503034515 | 53 | 210 | 5.0 | 8.0 | 0.00 | 0.00 | 0.00 | 46 | 1014.6 |
| 20260503033014 | 53 | 219 | 7.0 | 10.0 | 0.00 | 0.00 | 0.00 | 45 | 1014.7 |
| 20260503031512 | 53 | 217 | 6.0 | 9.0 | 0.00 | 0.00 | 0.00 | 45 | 1015.0 |
| 20260503030008 | 53 | 218 | 6.0 | 8.0 | 0.00 | 0.00 | 0.00 | 46 | 1015.2 |
| 20260503024507 | 54 | 227 | 5.0 | 9.0 | 0.00 | 0.00 | 0.00 | 44 | 1015.3 |
| 20260503023006 | 54 | 209 | 5.0 | 7.0 | 0.00 | 0.00 | 0.00 | 44 | 1015.4 |
| 20260503021505 | 55 | 221 | 5.0 | 6.0 | 0.00 | 0.00 | 0.00 | 44 | 1015.5 |
| 20260503020004 | 54 | 227 | 4.0 | 6.0 | 0.00 | 0.00 | 0.00 | 44 | 1015.4 |
| 20260503014504 | 55 | 243 | 1.0 | 5.0 | 0.00 | 0.00 | 0.00 | 46 | 1015.4 |
| 20260503013003 | 55 | 244 | 3.0 | 4.0 | 0.00 | 0.00 | 0.00 | 43 | 1015.4 |
| 20260503011502 | 56 | 255 | 3.0 | 5.0 | 0.00 | 0.00 | 0.00 | 42 | 1015.5 |
| 20260503010001 | 58 | 257 | 5.0 | 7.0 | 0.00 | 0.00 | 0.00 | 37 | 1015.5 |
| 20260503004601 | 60 | 257 | 7.0 | 13.0 | 0.00 | 0.00 | 0.00 | 35 | 1015.5 |
| 20260503003101 | 61 | 252 | 8.0 | 11.0 | 0.00 | 0.00 | 0.00 | 34 | 1015.6 |
| 20260503001558 | 61 | 268 | 11.0 | 14.0 | 0.00 | 0.00 | 0.00 | 32 | 1015.7 |
| 20260503000105 | 62 | 266 | 10.0 | 13.0 | 0.00 | 0.00 | 0.00 | 34 | 1015.8 |
| 20260502234602 | 62 | 284 | 10.0 | 15.0 | 0.00 | 0.00 | 0.00 | 32 | 1016.0 |
| 20260502233054 | 63 | 266 | 10.0 | 16.0 | 0.00 | 0.00 | 0.00 | 31 | 1016.1 |
| 20260502231553 | 62 | 259 | 8.0 | 14.0 | 0.00 | 0.00 | 0.00 | 33 | 1016.4 |
| 20260502230051 | 63 | 261 | 12.0 | 17.0 | 0.00 | 0.00 | 0.00 | 33 | 1016.5 |
| 20260502224551 | 62 | 288 | 9.0 | 16.0 | 0.00 | 0.00 | 0.00 | 34 | 1016.6 |
| 20260502223048 | 62 | 275 | 9.0 | 18.0 | 0.00 | 0.00 | 0.00 | 36 | 1016.7 |
| 20260502221549 | 62 | 290 | 9.0 | 15.0 | 0.00 | 0.00 | 0.00 | 32 | 1016.9 |
| 20260502220056 | 63 | 262 | 15.0 | 20.0 | 0.00 | 0.00 | 0.00 | 30 | 1017.2 |
| 20260502214542 | 62 | 301 | 9.0 | 21.0 | 0.00 | 0.00 | 0.00 | 32 | 1017.2 |
| 20260502213042 | 62 | 273 | 13.0 | 23.0 | 0.00 | 0.00 | 0.00 | 31 | 1017.5 |